• In Netherlands
  • List of Countries
  • For 7 days
  • Water Temperature
  • Satellite Maps
  • Weather Map
  • Weather Widgets
  • user-avatar
    Login

    Hourly Weather Offenbach am Main

    Today, 17 August, Friday

    Time Temperature Precipitation Wind Pressure Humidity
    00:00 +23°C° 0 mm 1 mps 750 mmHg 59%
    01:00 +22°C° 0 mm 1 mps 750 mmHg 62%
    02:00 +22°C° 0 mm 1 mps 750 mmHg 64%
    03:00 +21°C° 0 mm 1 mps 750 mmHg 67%
    04:00 +21°C° 0 mm 1 mps 750 mmHg 70%
    05:00 +21°C° 0.1 mm 1 mps 750 mmHg 69%
    06:00 +22°C° 0.1 mm 1 mps 750 mmHg 69%
    07:00 +22°C° 0.1 mm 1 mps 750 mmHg 69%
    08:00 +24°C° 0.1 mm 1 mps 751 mmHg 64%
    09:00 +26°C° 0.1 mm 1 mps 751 mmHg 59%
    10:00 +27°C° 0.1 mm 1 mps 751 mmHg 54%
    11:00 +29°C° 0.2 mm 1 mps 751 mmHg 51%
    12:00 +30°C° 0.2 mm 1 mps 751 mmHg 48%
    13:00 +31°C° 0.2 mm 1 mps 751 mmHg 44%
    14:00 +31°C° 0.2 mm 2 mps 751 mmHg 46%
    15:00 +30°C° 0.2 mm 2 mps 751 mmHg 48%
    16:00 +30°C° 0.2 mm 3 mps 751 mmHg 49%
    17:00 +28°C° 0.3 mm 3 mps 751 mmHg 57%
    18:00 +26°C° 0.3 mm 3 mps 752 mmHg 64%
    19:00 +25°C° 0.3 mm 4 mps 752 mmHg 71%
    20:00 +22°C° 0.6 mm 3 mps 752 mmHg 76%
    21:00 +21°C° 0.6 mm 3 mps 753 mmHg 81%
    22:00 +19°C° 0.6 mm 3 mps 754 mmHg 86%
    23:00 +19°C° 0.1 mm 2 mps 754 mmHg 86%

    Tomorrow, 18 August, Saturday

    Time Temperature Precipitation Wind Pressure Humidity
    00:00 +19°C° 0.1 mm 2 mps 754 mmHg 87%
    01:00 +18°C° 0.1 mm 2 mps 755 mmHg 87%
    02:00 +18°C° 0 mm 2 mps 755 mmHg 87%
    03:00 +17°C° 0 mm 2 mps 755 mmHg 88%
    04:00 +17°C° 0 mm 2 mps 755 mmHg 88%
    05:00 +17°C° 0 mm 2 mps 755 mmHg 86%
    06:00 +17°C° 0 mm 2 mps 755 mmHg 85%
    07:00 +18°C° 0 mm 2 mps 756 mmHg 83%
    08:00 +19°C° 0 mm 2 mps 756 mmHg 76%
    09:00 +21°C° 0 mm 2 mps 756 mmHg 69%
    10:00 +24°C° 0 mm 2 mps 756 mmHg 62%
    11:00 +25°C° 0 mm 2 mps 756 mmHg 57%
    12:00 +26°C° 0 mm 1 mps 756 mmHg 52%
    13:00 +27°C° 0 mm 1 mps 756 mmHg 48%
    14:00 +27°C° 0 mm 1 mps 756 mmHg 45%
    15:00 +28°C° 0 mm 1 mps 755 mmHg 43%
    16:00 +28°C° 0 mm 1 mps 755 mmHg 40%
    17:00 +27°C° 0 mm 1 mps 755 mmHg 44%
    18:00 +26°C° 0 mm 1 mps 755 mmHg 48%
    19:00 +24°C° 0 mm 1 mps 755 mmHg 52%
    20:00 +23°C° 0 mm 1 mps 756 mmHg 55%
    21:00 +22°C° 0 mm 1 mps 756 mmHg 58%
    22:00 +20°C° 0 mm 1 mps 757 mmHg 61%
    23:00 +20°C° 0 mm 1 mps 757 mmHg 63%

    Day after tomorrow, 19 August, Sunday

    Time Temperature Precipitation Wind Pressure Humidity
    00:00 +19°C° 0 mm 1 mps 757 mmHg 65%
    01:00 +19°C° 0 mm 1 mps 757 mmHg 67%
    02:00 +18°C° 0 mm 1 mps 757 mmHg 69%
    03:00 +18°C° 0 mm 1 mps 756 mmHg 71%
    04:00 +18°C° 0 mm 1 mps 756 mmHg 73%
    05:00 +18°C° 0 mm 1 mps 757 mmHg 72%
    06:00 +19°C° 0 mm 1 mps 757 mmHg 71%
    07:00 +19°C° 0 mm 1 mps 757 mmHg 69%
    08:00 +20°C° 0 mm 0 mps 757 mmHg 61%
    09:00 +22°C° 0 mm 0 mps 757 mmHg 53%
    10:00 +25°C° 0 mm 0 mps 757 mmHg 45%
    11:00 +26°C° 0 mm 0 mps 757 mmHg 42%
    12:00 +29°C° 0 mm 1 mps 756 mmHg 38%
    13:00 +30°C° 0 mm 1 mps 756 mmHg 34%
    14:00 +30°C° 0 mm 1 mps 755 mmHg 33%
    15:00 +30°C° 0 mm 1 mps 755 mmHg 33%
    16:00 +30°C° 0 mm 1 mps 755 mmHg 33%
    17:00 +29°C° 0 mm 1 mps 755 mmHg 38%
    18:00 +27°C° 0 mm 1 mps 755 mmHg 43%
    19:00 +24°C° 0 mm 0 mps 755 mmHg 48%
    20:00 +23°C° 0 mm 0 mps 755 mmHg 50%
    21:00 +22°C° 0 mm 0 mps 755 mmHg 52%
    22:00 +21°C° 0 mm 0 mps 755 mmHg 54%
    23:00 +20°C° 0 mm 0 mps 755 mmHg 56%

    20 August, Monday

    Time Temperature Precipitation Wind Pressure Humidity
    00:00 +20°C° 0 mm 0 mps 755 mmHg 58%
    01:00 +19°C° 0 mm 0 mps 755 mmHg 60%
    02:00 +19°C° 0 mm 0 mps 755 mmHg 62%
    03:00 +18°C° 0 mm 0 mps 755 mmHg 64%
    04:00 +18°C° 0 mm 0 mps 754 mmHg 66%
    05:00 +18°C° 0 mm 0 mps 755 mmHg 66%
    06:00 +19°C° 0 mm 0 mps 755 mmHg 65%
    07:00 +20°C° 0 mm 0 mps 755 mmHg 64%
    08:00 +24°C° 0 mm 1 mps 755 mmHg 59%
    09:00 +26°C° 0 mm 1 mps 755 mmHg 54%
    10:00 +28°C° 0 mm 1 mps 755 mmHg 48%
    11:00 +29°C° 0 mm 2 mps 755 mmHg 45%
    12:00 +30°C° 0 mm 2 mps 754 mmHg 42%
    13:00 +31°C° 0 mm 2 mps 754 mmHg 40%
    14:00 +31°C° 0 mm 2 mps 754 mmHg 40%
    15:00 +31°C° 0 mm 2 mps 754 mmHg 40%
    16:00 +31°C° 0 mm 3 mps 754 mmHg 40%
    17:00 +29°C° 0 mm 3 mps 754 mmHg 46%
    18:00 +28°C° 0 mm 3 mps 754 mmHg 52%
    19:00 +26°C° 0 mm 3 mps 754 mmHg 59%
    20:00 +25°C° 0 mm 2 mps 754 mmHg 64%
    21:00 +24°C° 0 mm 2 mps 754 mmHg 69%
    22:00 +21°C° 0 mm 2 mps 755 mmHg 74%
    23:00 +21°C° 0 mm 2 mps 755 mmHg 76%

    21 August, Tuesday

    Time Temperature Precipitation Wind Pressure Humidity
    00:00 +21°C° 0 mm 1 mps 755 mmHg 79%
    01:00 +20°C° 0 mm 1 mps 755 mmHg 81%
    02:00 +20°C° 0 mm 1 mps 755 mmHg 82%
    03:00 +20°C° 0 mm 1 mps 755 mmHg 84%
    04:00 +19°C° 0 mm 1 mps 755 mmHg 85%
    05:00 +20°C° 0 mm 1 mps 755 mmHg 83%
    06:00 +20°C° 0 mm 1 mps 755 mmHg 81%
    07:00 +21°C° 0 mm 1 mps 756 mmHg 80%
    08:00 +23°C° 0 mm 1 mps 756 mmHg 73%
    09:00 +25°C° 0 mm 1 mps 756 mmHg 65%
    10:00 +27°C° 0 mm 1 mps 756 mmHg 58%
    11:00 +28°C° 0 mm 1 mps 755 mmHg 55%
    12:00 +29°C° 0 mm 1 mps 755 mmHg 51%
    13:00 +30°C° 0 mm 1 mps 755 mmHg 47%
    14:00 +30°C° 0 mm 1 mps 754 mmHg 46%
    15:00 +30°C° 0 mm 1 mps 754 mmHg 45%
    16:00 +30°C° 0 mm 1 mps 754 mmHg 44%
    17:00 +29°C° 0 mm 1 mps 754 mmHg 48%
    18:00 +28°C° 0 mm 1 mps 753 mmHg 53%
    19:00 +27°C° 0 mm 1 mps 753 mmHg 58%
    20:00 +25°C° 0 mm 1 mps 754 mmHg 62%
    21:00 +24°C° 0 mm 1 mps 754 mmHg 66%
    22:00 +23°C° 0 mm 1 mps 754 mmHg 70%
    23:00 +23°C° 0 mm 1 mps 754 mmHg 73%

    22 August, Wednesday

    Time Temperature Precipitation Wind Pressure Humidity
    00:00 +22°C° 0 mm 1 mps 754 mmHg 75%
    01:00 +21°C° 0 mm 1 mps 754 mmHg 78%
    02:00 +21°C° 0 mm 1 mps 753 mmHg 79%
    03:00 +21°C° 0 mm 1 mps 753 mmHg 81%
    04:00 +18°C° 0 mm 0 mps 753 mmHg 82%
    05:00 +19°C° 0 mm 0 mps 753 mmHg 80%
    06:00 +20°C° 0 mm 0 mps 753 mmHg 78%
    07:00 +20°C° 0 mm 0 mps 753 mmHg 75%
    08:00 +23°C° 0 mm 0 mps 753 mmHg 67%
    09:00 +25°C° 0 mm 0 mps 753 mmHg 59%
    10:00 +28°C° 0 mm 0 mps 753 mmHg 51%
    11:00 +30°C° 0 mm 1 mps 753 mmHg 47%
    12:00 +31°C° 0 mm 1 mps 752 mmHg 43%
    13:00 +32°C° 0 mm 1 mps 752 mmHg 39%
    14:00 +32°C° 0 mm 1 mps 752 mmHg 38%
    15:00 +32°C° 0 mm 1 mps 752 mmHg 37%
    16:00 +34°C° 0 mm 2 mps 751 mmHg 37%
    17:00 +31°C° 0 mm 1 mps 751 mmHg 42%
    18:00 +30°C° 0 mm 1 mps 751 mmHg 46%
    19:00 +28°C° 0 mm 1 mps 751 mmHg 51%
    20:00 +27°C° 0.1 mm 1 mps 752 mmHg 54%
    21:00 +26°C° 0.1 mm 1 mps 752 mmHg 57%
    22:00 +25°C° 0.1 mm 1 mps 752 mmHg 60%
    23:00 +24°C° 0.2 mm 1 mps 752 mmHg 65%
    Show more